Regional Weather Roundup
Issued by NWS

Home | Current Version | Previous Version | Graphics & Text | Print | Product List | Glossary On
Versions: 1 2 3 4 5 6 7 8 9 10 11 12 13 14 15 16 17 18 19 20 21 22 23 24 25 26 27 28 29 30 31 32 33 34 35 36 37 38 39 40 41 42 43 44 45 46 47 48 49 50
000
ASUS43 KMPX 211810
RWRMN
WEATHER ROUNDUP FOR MINNESOTA
NATIONAL WEATHER SERVICE TWIN CITIES/CHANHASSEN MN
100 PM CDT MON JUL 21 2014


NOTE: "FAIR" INDICATES FEW OR NO CLOUDS BELOW 12,000 FEET WITH NO
SIGNIFICANT WEATHER AND/OR OBSTRUCTIONS TO VISIBILITY. N/A MEANS
CURRENT SKY AND/OR WEATHER CONDITIONS ARE NOT AVAILABLE.

MNZ060>063-068>070-211900-
   Twin Cities Metro

CITY           SKY/WX    TMP DP  RH WIND       PRES   REMARKS
TWIN CITIES    MOSUNNY   87  73  62 SE12      29.89F HX  94
6HR MIN TEMP:  74; 6HR MAX TEMP:  87;

ST PAUL        SUNNY     85  73  67 SE12      29.90S HX  91
CRYSTAL        SUNNY     87  72  60 SE9       29.88F HX  93
BLAINE           N/A     88  73  62 SE9       29.89F HX  96
LAKEVILLE      SUNNY     84  73  70 S9        29.91S HX  91
EDEN PRAIRIE   MOSUNNY   87  73  62 SE14      29.88F HX  94
6HR MIN TEMP:  75; 6HR MAX TEMP:  87;

SOUTH ST PAUL  SUNNY     85  71  63 SE8       29.91S HX  90
LAKE ELMO      FAIR      84  73  70 SE10      29.92F HX  91
$$
MNZ001>005-007-008-013>017-022>024-027-028-211900-
   Northwest Minnesota

CITY           SKY/WX    TMP DP  RH WIND       PRES   REMARKS
BEMIDJI        CLOUDY    82  73  74 SE10      29.87S
HALLOCK        MOSUNNY   84  63  48 NE6       29.82S
ROSEAU         SUNNY     84  66  54 E3        29.84F
WARROAD        SUNNY     81  64  57 NE7       29.86S
THIEF RVR FALL SUNNY     84  72  65 SE12      29.82F
CROOKSTON      SUNNY     88  75  66 SE10      29.79F HX  97
FOSSTON        SUNNY     84  73  70 SE9       29.84F HX  91
DETROIT LAKES  PTSUNNY   82  72  69 SE12      29.86F
MOORHEAD       MOSUNNY   88  79  74 SE12G21   29.79F HX 102
PARK RAPIDS    PTSUNNY   82  73  74 S12       29.87F
$$
MNZ006-009>011-018-025>026-211900-
   North Central Minnesota

CITY           SKY/WX    TMP DP  RH WIND       PRES   REMARKS
BAUDETTE       SUNNY     86  64  47 VRB6      29.86F
FLAG ISLAND    SUNNY     75  61  60 SE6       29.86R
INTL FALLS     SUNNY     85  67  54 VRB5      29.86F
6HR MIN TEMP:  66; 6HR MAX TEMP:  85;

WASKISH        SUNNY     88  72  58 CALM      29.84F HX  94
BIG FORK       MOSUNNY  N/A N/A N/A S8        29.89S
LONGVILLE      MOSUNNY   84  73  70 S10       29.88F HX  91
GRAND RAPIDS   PTSUNNY   82  73  74 S10       29.89F
CRANE LAKE     SUNNY     84  66  54 SW3       29.89F
ORR            SUNNY     88  70  55 S5        29.86S HX  92
COOK           MOSUNNY   84  72  65 SW9       29.89F
$$
MNZ012-019>021-037-211900-
   Northeast Minnesota

CITY           SKY/WX    TMP DP  RH WIND       PRES   REMARKS
DULUTH         MOSUNNY   85  71  63 S12       29.92F HX  90
6HR MIN TEMP:  72; 6HR MAX TEMP:  86;

ELY            MOSUNNY   84  72  65 SW8       29.90S
HIBBING        MOSUNNY   87  72  60 S10G18    29.89S HX  93
EVELETH        MOSUNNY   86  72  62 S10       29.91S HX  92
DULUTH HARBOR  MOSUNNY   88  73  62 S13       29.88F HX  96
TWO HARBORS    SUNNY     84  72  65 SW8       29.89S
SILVER BAY     SUNNY     84  75  74 SE9       29.88S HX  92
GRAND MARAIS     N/A     64  59  83 SW5       29.87F
G MARAIS ARPRT SUNNY     82  70  65 S7        29.94S
$$
MNZ029>031-032-039>041-046>048-054>057-064-211900-
   West Central Minnesota

CITY           SKY/WX    TMP DP  RH WIND       PRES   REMARKS
FERGUS FALLS   SUNNY     88  72  58 SE15      29.80F HX  94
WHEATON        SUNNY     84  75  74 SE17      29.80F HX  92
MORRIS         SUNNY     84  75  74 SE16      29.82S HX  92
ALEXANDRIA     SUNNY     88  74  63 E15       29.87S HX  96
ELBOW LAKE     FAIR      86  74  68 SE13G22   29.82F HX  94
WADENA         MOSUNNY   84  73  70 SE14      29.85F HX  91
GLENWOOD       SUNNY     88  73  62 SE15      29.87S HX  96
APPLETON       SUNNY     88  73  62 SE16      29.80F HX  96
BENSON         SUNNY     86  75  70 SE14      29.82F HX  95
ORTONVILLE     MOSUNNY   84  73  70 SE13      29.80F HX  91
MADISON        SUNNY     88  75  66 SE14      29.80F HX  97
WILLMAR        FAIR      88  72  58 SE17      29.86S HX  94
$$
MNZ033>034-036-042>043-049>051-058-059-211900-
   Central Minnesota

CITY           SKY/WX    TMP DP  RH WIND       PRES   REMARKS
ST CLOUD       SUNNY     89  72  56 SE12      29.88S HX  96
6HR MIN TEMP:  74; 6HR MAX TEMP:  89;

SAUK CENTRE    FAIR      87  72  61 SE16G23   29.87S HX  93
PAYNESVILLE    MOSUNNY   83  72  68 E10       29.88S
AITKIN         MOSUNNY   88  75  66 S10G20    29.88F HX  97
PINE RIVER     MOSUNNY   84  73  70 S10G16    29.91S HX  91
BRAINERD       MOSUNNY   85  72  65 S13       29.88F HX  91
STAPLES        MOSUNNY   84  72  65 SE10      29.87F
LONG PRAIRIE   FAIR      84  72  65 E10G17    29.88S
LITTLE FALLS   SUNNY     86  70  58 SE9       29.88F HX  90
LITCHFIELD     SUNNY     86  75  70 SE16      29.87F HX  95
BUFFALO        SUNNY     85  71  62 SE8       29.90S
MAPLE LAKE     SUNNY     85  74  69 SE8       29.90S HX  93
$$
MNZ037-044-045-052-053-211900-
   East Central Minnesota

CITY           SKY/WX    TMP DP  RH WIND       PRES   REMARKS
PRINCETON      SUNNY     88  73  62 SE9       29.89S HX  96
CAMBRIDGE      SUNNY     88  72  58 SE7       29.88S HX  94
RUSH CITY      SUNNY     85  72  65 SE7       29.91S HX  91
MOOSE LAKE     PTSUNNY   86  70  58 S7        29.89F HX  90
HINCKLEY       FAIR      86  72  62 S9        29.92R HX  92
CLOQUET        SUNNY     84  70  61 S9        29.91F
MCGREGOR       MOSUNNY   86  72  62 S10G20    29.89F HX  92
$$
MNZ071>073-080-081-089-090-097-098-211900-
   Southwest Minnesota

CITY           SKY/WX    TMP DP  RH WIND       PRES   REMARKS
MONTEVIDEO     SUNNY     88  75  66 S14       29.82F HX  97
GRANITE FALLS  SUNNY     85  75  72 E13G21    29.83F HX  94
CANBY          SUNNY     86  75  69 SE14G22   29.82S HX  96
MARSHALL       SUNNY     88  73  62 SE16G23   29.81F HX  96
REDWOOD FALLS  SUNNY     87  74  64 SE14G22   29.84F HX  95
OLIVIA         SUNNY     86  73  66 SE13      29.84F HX  93
PIPESTONE      SUNNY     84  73  70 S16       29.84S HX  91
WINDOM         SUNNY     88  73  62 SE15      29.86F HX  96
WORTHINGTON    CLOUDY    81  73  78 SE12      29.88S
JACKSON        MIX PCPN  86  72  62 SE18      29.89S HX  92
TRACY          SUNNY     87  76  70 SE10G17   29.84F HX  97
SLAYTON        PTSUNNY   84  74  71 SE16      29.86F HX  92
$$
MNZ065>067-074>077-082>085-091>093-211900-
   South Central Minnesota

CITY           SKY/WX    TMP DP  RH WIND       PRES   REMARKS
MANKATO        SUNNY     86  72  62 SE14      29.89F HX  92
NEW ULM        SUNNY     84  75  74 SE17      29.86F HX  92
ST JAMES       SUNNY     86  73  66 E9G16     29.88F HX  93
FAIRMONT       PTSUNNY   84  72  65 SE13G22   29.88F
GLENCOE        SUNNY     87  71  58 SE9       29.88F HX  93
FARIBAULT      SUNNY     90  70  51 SE12G17   29.92S HX  95
OWATONNA       SUNNY     86  72  62 SE13      29.92S HX  92
WASECA         SUNNY     82  68  61 SE13G20   29.93S
ALBERT LEA     SUNNY     86  72  62 SE16      29.92F HX  92
$$
MNZ078>079-086>088-094>096-211900-
   Southeast Minnesota

CITY           SKY/WX    TMP DP  RH WIND       PRES   REMARKS
ROCHESTER      SUNNY     83  73  72 SE15G22   29.96F
6HR MIN TEMP:  71; 6HR MAX TEMP:  83;

RED WING       SUNNY     86  70  58 SE10      29.92R HX  90
STANTON        SUNNY     85  72  63 S13       29.90F HX  91
DODGE CENTER   SUNNY     84  73  70 S15       29.95S HX  91
WINONA         SUNNY     82  70  65 S6        29.96F
AUSTIN         SUNNY     84  72  65 S13G18    29.94F
PRESTON        SUNNY     82  75  79 SE15G21   29.98F
$$
ABBREVIATIONS USED IN REMARKS
   TC - TEMPERATURES IN CELSIUS
  WCI - WIND CHILL INDEX
   HX - HEAT INDEX
  VSB - VISIBILITY
$$



USA.gov is the U.S. government's official web portal to all federal, state and local government web resources and services.